Theta_e
288 288 288 288 287 287 287 286 285 284 284 283 282 282 282 281 281 281 281 281 281 281 281 281 280 281 280 281 281 281 281 281 278 280 282 283 283 283 284 286 286 286 287
288 288 288 287 287 286 286 285 285 283 283 282 281 281 280 280 280 279 279 279 279 279 279 279 279 279 278 279 279 278 278 279 277 275 278 279 280 282 282 282 283 285 285
288 288 287 286 286 286 285 284 283 282 281 280 280 279 278 278 278 278 278 278 279 279 279 278 277 277 276 277 276 276 276 277 277 276 275 278 278 279 280 281 282 282 284
288 287 287 286 286 286 285 283 282 281 280 279 279 277 277 276 276 277 277 278 278 278 278 278 277 276 276 275 274 275 275 275 275 274 274 274 275 277 277 277 277 280 279
287 286 286 287 286 286 284 282 280 279 278 277 277 276 276 276 275 276 277 277 277 276 277 277 277 276 276 276 275 275 274 273 273 272 272 272 273 273 273 275 275 276 277
286 286 286 286 285 283 282 280 278 277 276 276 275 275 274 275 275 276 276 276 276 275 275 275 275 276 275 276 277 277 276 273 272 272 271 271 272 273 274 274 274 273 271
285 285 285 284 282 281 280 278 277 276 275 274 274 274 274 274 275 275 276 275 275 275 274 274 274 274 275 274 275 276 276 277 277 275 272 273 272 274 274 273 273 273 273
284 284 283 282 280 280 278 276 276 275 274 274 273 273 273 273 274 275 275 275 274 274 274 274 273 274 274 274 274 274 275 275 275 276 275 275 276 276 276 275 275 275 276
282 283 282 281 279 278 275 275 275 274 273 273 273 272 271 272 273 274 274 273 274 274 275 275 274 274 276 277 276 274 274 275 279 280 280 281 281 281 281 278 275 273 272
282 283 282 280 277 275 275 274 275 274 273 272 272 272 271 269 271 273 273 273 272 273 274 275 276 276 277 278 276 275 272 273 274 274 275 276 277 277 279 277 276 272 271
282 281 279 277 275 275 274 274 272 271 271 270 270 270 270 269 269 272 274 273 273 273 273 274 275 277 277 278 277 273 272 274 274 272 271 272 273 274 275 276 277 276 273
279 277 275 273 274 273 270 271 270 269 268 268 268 269 270 270 271 272 274 275 275 273 272 274 274 277 276 276 274 274 275 274 269 269 268 269 270 271 273 274 274 275 275
275 273 271 271 272 271 269 269 268 269 269 270 270 270 270 271 271 273 274 274 275 274 274 275 277 274 274 272 272 272 270 268 267 266 266 267 269 270 271 271 272 273 273
272 271 270 269 269 269 270 270 270 270 270 270 269 269 270 270 271 271 272 272 274 275 275 272 272 272 271 271 269 269 268 268 267 266 267 268 268 268 268 269 269 270 269
272 271 271 270 269 269 269 270 270 271 271 270 269 269 268 268 271 273 273 273 273 274 273 268 267 266 266 266 266 267 267 267 266 267 265 265 266 267 267 268 268 268 267
272 271 271 271 270 270 270 269 272 272 272 272 272 272 272 273 275 276 276 275 276 274 268 265 264 264 264 264 264 264 265 265 266 265 265 265 265 265 265 267 268 267 267
273 272 272 270 271 269 269 268 267 270 271 272 273 273 273 273 274 274 274 274 274 268 263 263 263 263 263 263 264 264 263 265 265 264 264 264 264 265 265 266 266 267 267
270 267 271 269 270 269 268 267 267 265 265 266 269 268 269 270 271 272 273 273 267 264 261 261 261 262 262 262 262 262 262 263 263 263 263 263 264 265 265 265 266 265 265
267 267 267 268 267 265 266 265 264 263 263 262 263 264 265 267 269 270 271 266 261 260 260 260 261 261 261 261 261 261 261 261 261 261 262 263 264 264 264 265 265 265 266
263 262 263 264 264 262 262 262 262 262 261 261 261 261 262 260 259 261 263 261 260 259 260 259 259 259 259 259 259 259 260 260 260 261 262 262 263 264 264 265 265 265 265
263 262 261 262 262 262 262 261 261 261 260 260 260 261 264 259 258 260 262 261 260 259 259 259 259 258 258 258 258 258 259 259 259 260 261 262 263 261 264 265 265 265 266
261 261 260 260 261 261 260 260 260 260 259 258 259 260 264 262 261 262 260 260 259 258 258 258 257 257 257 257 257 257 257 257 258 259 260 260 261 262 265 264 264 265 265
260 260 259 259 259 259 258 258 258 258 258 258 258 258 258 258 258 258 258 258 258 257 257 256 256 256 256 256 257 257 257 256 258 259 258 259 260 263 264 263 263 263 263
259 259 259 260 259 259 259 259 259 258 258 257 258 258 258 259 259 259 259 258 257 257 256 255 254 253 254 254 255 256 257 257 258 258 258 259 260 264 263 262 262 262 263
259 259 259 259 258 258 258 258 258 258 258 258 258 258 259 259 259 258 257 256 256 255 254 254 254 253 253 252 253 253 254 256 255 256 258 260 264 263 261 261 259 261 261
259 258 258 258 258 258 257 257 257 258 257 258 258 258 258 258 257 257 256 256 255 254 253 254 254 252 252 253 253 254 256 259 259 260 263 265 259 256 256 256 257 257 258
Wind_Speed
9 8 9 8 8 8 7 7 7 6 5 4 3 3 3 3 4 4 4 4 6 6 6 6 8 8 6 7 7 7 8 8 12 13 11 12 15 16 13 13 12 12 13
10 10 9 9 8 7 7 7 6 6 4 3 3 2 2 2 3 3 4 5 6 7 7 7 8 7 9 9 7 9 9 10 10 18 14 12 13 14 16 17 12 11 12
10 10 9 9 9 8 8 8 7 6 5 4 2 2 1 1 2 3 4 6 6 7 7 8 9 9 9 7 8 9 8 9 9 11 15 10 12 11 13 14 13 13 11
12 11 11 11 10 9 8 7 7 5 5 4 3 2 1 1 2 2 4 6 7 7 8 8 9 9 9 10 10 10 10 9 10 10 12 13 11 11 11 12 12 10 12
13 12 12 10 9 8 8 7 6 5 4 3 2 2 2 2 2 4 6 7 8 9 8 9 9 9 15 13 9 9 11 10 9 11 12 13 11 11 12 10 12 12 12
14 13 11 10 9 8 8 7 6 6 5 4 3 2 3 3 4 7 7 7 9 9 9 9 10 11 11 16 18 19 16 12 13 11 12 13 16 13 11 11 11 12 13
13 12 11 10 9 9 8 7 7 6 5 4 4 3 4 5 7 8 10 7 8 9 9 10 10 8 11 11 15 20 19 21 23 17 17 15 17 15 14 15 14 13 13
12 10 9 10 10 9 8 8 7 6 6 5 4 4 5 5 8 10 11 9 9 9 9 10 11 11 11 13 14 15 15 15 16 14 17 17 17 16 16 15 16 16 14
13 12 11 11 11 10 9 8 7 6 6 5 4 5 5 6 10 10 9 8 9 9 10 10 10 11 17 22 16 15 16 16 18 24 25 29 32 32 27 14 10 11 13
12 12 11 10 10 9 9 7 6 5 5 4 5 5 6 7 11 11 9 6 8 8 9 9 14 12 20 22 15 14 16 15 16 15 14 17 20 18 26 16 11 12 12
7 8 9 9 8 8 8 6 6 5 4 5 5 5 6 7 8 12 11 7 7 7 8 8 7 17 21 23 26 14 16 19 17 11 11 11 11 11 10 10 11 10 11
8 8 8 8 7 7 8 6 5 5 5 5 5 6 6 7 10 11 13 14 14 8 9 8 9 18 20 25 19 22 24 20 9 9 9 10 10 10 9 10 13 13 11
8 8 8 8 7 7 7 7 7 7 5 5 5 5 5 4 5 11 12 13 15 10 8 14 16 16 20 15 18 20 13 7 8 9 9 10 9 10 13 12 12 13 14
8 8 8 8 8 7 6 6 6 6 6 6 6 6 5 4 5 5 5 6 13 11 13 2 8 14 14 13 8 9 6 6 7 9 9 10 10 10 10 9 10 10 10
7 7 8 6 8 7 7 6 6 6 7 5 5 4 5 5 5 10 9 7 7 9 5 1 3 5 6 6 6 6 6 6 7 8 8 10 10 10 10 9 9 10 10
8 7 7 6 6 5 5 5 11 12 11 13 14 12 7 15 18 19 16 18 19 8 2 3 4 5 6 6 6 7 6 7 7 8 9 9 10 10 11 10 9 9 11
6 7 5 5 5 5 4 4 4 5 11 13 15 17 18 17 19 19 17 19 12 4 3 3 5 5 5 6 6 6 7 7 9 8 9 9 10 10 12 10 10 10 10
5 5 4 5 4 3 3 3 3 3 4 4 8 10 13 16 18 19 19 15 3 2 2 4 5 5 5 6 6 7 7 7 8 8 9 9 9 10 11 10 10 11 11
4 4 3 3 3 2 2 2 3 4 5 5 5 8 8 14 16 17 18 5 2 3 4 5 5 5 5 6 6 6 7 7 8 9 9 9 9 10 11 10 11 15 15
3 5 2 3 3 3 3 4 4 5 5 5 5 6 5 1 4 5 5 4 4 5 5 5 5 5 5 5 5 6 7 7 8 8 9 9 9 9 11 11 10 11 11
3 4 2 2 2 2 3 3 4 4 5 5 6 5 12 6 6 7 7 4 5 5 5 5 5 5 5 5 5 6 7 8 7 8 8 9 9 10 10 10 10 11 11
2 2 3 2 2 3 4 4 4 5 6 6 6 7 16 7 7 7 5 5 5 5 4 5 5 5 5 4 5 6 7 8 7 7 9 9 9 10 10 9 10 9 10
2 1 1 1 2 3 3 5 5 5 6 6 6 6 6 6 6 6 6 6 5 5 5 5 5 5 4 4 5 6 7 8 7 8 9 10 10 10 9 9 9 9 9
2 1 2 3 3 4 4 5 5 6 6 7 7 7 7 7 7 7 7 6 6 6 6 5 5 7 6 6 6 6 7 8 7 9 11 10 10 9 8 8 8 9 8
2 2 3 3 3 4 4 5 6 6 6 7 7 7 7 6 7 6 6 6 6 6 6 6 6 8 10 10 10 10 12 15 11 12 9 11 10 8 6 6 5 7 7
3 3 4 3 4 4 5 5 6 6 7 7 7 7 7 6 6 7 6 6 6 6 7 6 7 10 10 10 11 13 13 14 12 13 11 7 4 4 3 5 6 4 6
Wind_Direction
146 141 142 147 145 141 137 135 131 129 126 115 96 77 63 37 26 6 352 350 339 332 327 325 317 321 311 310 307 301 298 296 291 293 294 296 300 301 304 305 299 299 297
161 164 168 158 161 155 149 144 142 145 138 124 111 100 70 34 12 356 341 342 326 321 319 316 316 321 315 311 309 309 304 306 300 297 302 307 304 304 301 299 296 295 294
168 176 173 172 175 169 162 158 164 159 151 147 155 133 62 13 338 339 342 313 309 306 311 313 313 314 310 314 314 311 307 303 298 294 299 307 307 308 309 304 300 300 291
178 184 183 186 181 173 169 169 162 167 162 170 173 182 234 297 299 315 305 304 306 305 308 307 307 305 307 319 308 307 306 309 305 299 297 304 306 309 308 307 304 314 312
185 189 191 184 181 168 169 171 163 170 162 183 207 217 269 287 286 324 314 309 306 306 304 300 298 308 302 297 297 303 305 301 299 296 294 298 304 304 302 305 299 303 301
189 193 190 181 172 169 170 170 171 177 185 193 212 235 275 283 288 293 297 301 300 296 296 299 300 298 299 308 302 300 296 296 292 292 288 287 294 297 292 295 296 302 300
190 192 186 168 165 173 170 175 185 189 186 207 223 235 258 267 273 280 292 288 288 287 292 298 301 303 305 300 301 300 294 285 284 287 285 279 284 288 291 288 284 282 283
187 183 169 164 169 171 176 184 184 184 198 211 220 240 261 267 271 279 284 284 286 288 290 293 294 297 296 300 292 287 282 276 271 267 266 274 275 278 273 273 274 271 271
189 182 178 174 173 174 179 184 185 185 194 207 219 228 244 260 269 275 288 294 287 289 285 281 284 288 291 295 295 296 291 285 282 290 294 293 291 293 293 287 285 291 290
189 187 173 169 167 172 168 176 171 187 199 213 228 231 241 258 270 274 278 280 279 282 284 283 283 285 296 304 306 309 306 304 303 298 299 296 292 286 287 277 280 275 280
155 141 146 152 160 160 155 161 165 183 203 217 235 245 246 250 258 262 266 265 272 280 284 290 290 296 303 316 314 311 302 303 312 314 305 295 293 294 293 289 282 273 276
134 140 146 147 157 155 153 159 171 187 206 219 236 252 244 233 235 253 262 266 274 281 283 285 286 297 317 313 315 309 314 323 313 306 305 300 304 303 304 311 307 298 289
140 145 145 148 161 157 164 174 187 197 215 225 230 241 246 233 233 257 271 271 276 278 275 276 309 318 314 311 307 313 329 313 312 311 307 300 302 311 309 301 294 292 288
148 154 153 162 167 169 187 192 199 201 206 218 227 237 243 240 242 246 236 259 270 280 283 316 304 313 305 302 306 313 310 311 311 303 307 309 307 304 297 298 297 298 295
158 163 169 179 182 182 205 200 208 216 215 214 221 225 235 246 249 251 251 254 265 272 297 282 310 302 296 295 300 302 305 310 309 312 312 305 303 302 302 304 300 298 292
166 169 178 181 178 200 197 215 234 238 234 240 242 236 234 252 262 267 271 277 281 301 328 287 280 283 287 296 299 302 303 306 311 312 300 304 306 306 305 305 299 296 298
171 164 167 188 184 186 200 223 243 231 246 259 262 266 269 271 272 276 279 275 284 324 236 261 270 274 282 287 293 297 301 306 308 299 304 305 305 299 302 302 304 302 299
114 108 163 173 180 188 208 229 249 267 271 266 255 261 273 274 274 272 274 279 246 239 237 257 261 268 275 283 290 295 300 304 304 304 305 300 301 302 303 304 307 304 301
136 145 161 148 156 157 197 212 239 249 251 258 270 271 279 281 281 275 270 274 252 244 248 253 255 264 273 280 286 290 291 293 297 297 298 300 302 307 301 308 304 304 301
109 88 121 160 166 183 202 220 238 243 250 250 252 257 267 206 258 261 247 244 249 244 246 252 256 260 267 272 280 285 289 290 291 295 298 299 299 308 302 306 307 305 303
141 141 159 186 195 212 238 246 247 254 260 261 263 262 256 229 245 250 246 235 246 248 248 249 255 258 262 267 273 278 280 285 288 292 295 296 304 305 298 305 304 304 304
127 136 148 198 230 228 238 244 249 255 260 264 267 265 273 275 273 271 255 252 246 243 246 252 254 253 254 261 270 274 277 280 286 289 292 299 298 298 306 309 308 310 311
111 128 163 213 237 257 252 247 252 255 261 263 265 266 257 253 254 256 253 250 247 245 242 241 249 256 250 247 247 254 267 272 276 286 289 292 295 293 311 312 314 317 319
134 184 234 250 251 253 256 257 259 256 255 262 266 266 259 255 252 251 253 256 253 249 243 239 238 248 257 252 254 253 256 261 267 276 280 278 283 301 309 307 312 317 316
202 233 246 256 259 257 261 258 262 266 268 267 269 266 267 262 258 258 256 253 250 249 249 241 244 249 251 251 252 254 261 269 262 262 268 266 275 293 292 301 305 315 326
225 236 247 251 249 247 253 263 269 271 270 269 268 268 265 265 263 260 257 252 250 248 250 250 249 244 249 257 258 260 263 270 275 271 270 264 252 268 282 294 308 310 321